Bryce Canyon, UT

4:37 PM MST on December 15, 2019 (GMT -0700)
Bryce Canyon

Weather History for KBCE - October, 2019

Change the Weather History Date:

Wednesday, October 9, 2019

  Actual Average Record
Temperature  
Mean Temperature 49 °F -  
Max Temperature 66 °F 61 °F 77 °F (1996)
Min Temperature 30 °F 28 °F 19 °F (1990)
Degree Days  
Heating Degree Days 16    
Moisture  
Dew Point 14 °F    
Average Humidity 27    
Maximum Humidity 45    
Minimum Humidity 11    
Precipitation  
Precipitation 0.00 in - - ()
Sea Level Pressure  
Sea Level Pressure 29.67 in    
Wind  
Wind Speed 10 mph (West)    
Max Wind Speed 24 mph    
Max Gust Speed 34 mph    
Visibility 10 miles    
Events Rain    
Averages and records for this station are not official NWS values.
T = Trace of Precipitation, MM = Missing Value Source: NWS Daily Summary

Daily Weather History Graph

Daily Weather History Graph

Search for Another Location

Airport or City:

Astronomy

Oct. 09, 2019 Rise Set
Actual Time 7:31 AM MDT 6:59 PM MDT
Civil Twilight 7:04 AM MDT 7:26 PM MDT
Nautical Twilight 6:34 AM MDT 7:56 PM MDT
Astronomical Twilight 6:04 AM MDT 8:26 PM MDT
Moon 5:28 PM MDT (10/9) 3:27 AM MDT (10/9)
Length of Visible Light 12h 21m
Length of Day
11h 28m
Waxing Gibbous, 85% of the Moon is Illuminated
Oct 9
Waxing Gibbous
Oct 13
Full
Oct 21
Last Quarter
Oct 27
New
Nov 4
First Quarter

Hourly Weather History & Observations

Time (MDT) Temp. Windchill Dew Point Humidity Pressure Visibility Wind Dir Wind Speed Gust Speed Precip Events Conditions
12:53 AM 46.0 °F 44.8 °F 12.9 °F 26% 29.72 in 10.0 mi SW 3.5 mph - N/A   Clear
1:53 AM 46.0 °F 43.9 °F 12.9 °F 26% 29.71 in 10.0 mi West 4.6 mph - N/A   Clear
2:53 AM 48.0 °F - 14.0 °F 26% 29.69 in 10.0 mi WSW 6.9 mph - N/A   Clear
3:53 AM 52.0 °F - 12.9 °F 21% 29.64 in 10.0 mi West 11.5 mph - N/A   Clear
4:53 AM 39.0 °F 36.8 °F 12.0 °F 33% 29.68 in 10.0 mi Variable 3.5 mph - N/A   Clear
5:53 AM 32.0 °F - 12.0 °F 44% 29.72 in 10.0 mi Calm Calm - N/A   Clear
6:53 AM 35.1 °F 30.1 °F 12.0 °F 39% 29.72 in 10.0 mi West 5.8 mph - N/A   Clear
7:53 AM 39.0 °F 35.7 °F 14.0 °F 36% 29.74 in 10.0 mi West 4.6 mph - N/A   Clear
8:53 AM 54.0 °F - 17.1 °F 23% 29.67 in 10.0 mi SSW 11.5 mph - N/A   Clear
9:53 AM 55.0 °F - 16.0 °F 22% 29.65 in 10.0 mi SSE 8.1 mph - N/A   Clear
10:53 AM 60.1 °F - 12.9 °F 16% 29.64 in 10.0 mi WSW 20.7 mph 26.5 mph 0.00 in Rain Light Rain
11:53 AM 62.1 °F - 16.0 °F 17% 29.62 in 10.0 mi SW 19.6 mph 27.6 mph 0.00 in   Clear
12:53 PM 64.9 °F - 16.0 °F 15% 29.59 in 10.0 mi SW 19.6 mph 29.9 mph 0.00 in Rain Light Rain
1:53 PM 66.0 °F - 14.0 °F 13% 29.56 in 10.0 mi SW 21.9 mph 29.9 mph 0.00 in Rain Light Rain
2:53 PM 66.0 °F - 14.0 °F 13% 29.53 in 10.0 mi WSW 21.9 mph 29.9 mph 0.00 in   Clear
3:53 PM 66.0 °F - 12.0 °F 12% 29.50 in 10.0 mi West 21.9 mph 29.9 mph N/A   Partly Cloudy
4:53 PM 64.9 °F - 8.1 °F 11% 29.55 in 10.0 mi West 24.2 mph 34.5 mph N/A   Clear
5:39 PM 60.1 °F - 19.0 °F 20% 29.84 in 10.0 mi WNW 13.8 mph 25.3 mph N/A   Partly Cloudy
5:53 PM 59.0 °F - 19.9 °F 22% 29.60 in 10.0 mi NW 13.8 mph - N/A   Clear
6:53 PM 48.9 °F - 19.9 °F 32% 29.68 in 10.0 mi NW 17.3 mph 24.2 mph N/A   Clear
7:53 PM 44.1 °F 38.1 °F 19.0 °F 37% 29.72 in 10.0 mi WNW 11.5 mph - N/A   Clear
8:53 PM 39.9 °F 32.1 °F 18.0 °F 41% 29.70 in 10.0 mi NW 13.8 mph - N/A   Clear
9:53 PM 35.1 °F 25.5 °F 15.1 °F 44% 29.75 in 10.0 mi WNW 15.0 mph 20.7 mph N/A   Clear
10:53 PM 32.0 °F 24.2 °F 12.9 °F 45% 29.76 in 10.0 mi North 9.2 mph - N/A   Partly Cloudy
11:53 PM 30.9 °F 20.7 °F 9.0 °F 40% 29.77 in 10.0 mi NW 13.8 mph - N/A   Clear